Location: Caltech
(34.1382°N, 118.1253°W)
Time: 21:44:01
(UTC-07:00)

BREEZE M DEB (TANK) - Visible Passes

Search period start: 21 April 2018 00:00
Search period end: 01 May 2018 00:00
Orbit: 337 x 13669 km, 49.6° (Epoch: 21 April)

Date Brightness Start Highest point End Pass type
(mag) Time Alt. Az. Time Alt. Az. Time Alt. Az.
21 Apr 8.6 21:22:18 10° NW 22:48:40 36° W 23:42:11 10° SSW visible
22 Apr 8.4 18:16:08 10° NW 20:03:47 78° WSW 21:07:35 10° SSE visible
23 Apr 9.4 00:02:31 10° WNW 00:18:20 11° WNW 00:33:37 10° WNW visible
23 Apr 8.5 20:14:45 10° NW 21:51:39 48° W 22:48:25 10° SSW visible
24 Apr 8.5 17:13:32 10° WNW 18:55:58 90° WSW 20:09:06 10° SSE visible
24 Apr 9.0 22:26:19 10° NW 23:25:34 20° WNW 00:13:30 10° WSW visible
25 Apr 8.5 19:09:32 10° NW 20:52:08 60° WSW 21:52:46 10° S visible
26 Apr 8.7 21:12:42 10° NW 22:31:06 31° W 23:27:12 10° SW visible
27 Apr 8.5 18:05:53 10° NW 19:49:35 73° WSW 20:55:49 10° SSE visible
28 Apr 8.6 20:04:32 10° NW 21:34:43 43° W 22:34:58 10° SSW visible
29 Apr 9.3 22:20:40 10° NW 23:07:22 16° WNW 23:50:20 10° WSW visible
30 Apr 8.6 18:59:09 10° NW 20:36:03 55° W 21:40:08 10° S visible
